Wind_Speed
29 28 27 26 25 25 25 25 25 25 24 24 24 23 23 23 22 21 21 22 22 23 23 22 22 22 21 20 20 20 20 20 19 19 18 17 17 17 16 15 15 14 13 11 10 8 8 9 9 9 9 9 9 9 9 9 9 9 10 11 12 11 10 11 11 13 17 18 16 15 15 15 15 15 16 16 16 17 17 17 18 18 18 18 18
30 28 27 27 26 26 26 26 26 26 25 25 25 24 23 23 23 23 24 25 25 26 26 25 25 25 23 22 22 21 20 21 20 19 19 19 18 18 18 17 15 15 13 12 11 10 10 10 11 10 10 11 11 11 10 10 10 11 11 11 12 12 10 11 12 13 17 20 19 17 16 16 16 16 16 17 17 17 17 17 17 18 17 17 18
30 28 27 27 27 27 26 26 26 27 27 26 26 25 24 25 26 26 26 26 26 27 27 27 27 27 25 24 24 22 21 21 21 20 20 21 19 18 17 17 15 14 13 12 12 11 12 12 12 11 11 11 12 11 11 11 11 11 12 12 12 13 12 12 13 14 17 20 19 18 18 17 17 17 17 17 17 17 17 17 17 17 17 17 18
29 28 27 27 28 28 27 27 27 27 27 26 26 26 25 26 27 28 26 26 27 27 27 28 29 29 27 25 25 24 23 23 22 21 21 21 21 19 17 16 15 13 12 12 12 12 12 13 12 11 11 11 12 11 11 11 11 11 12 12 12 13 13 13 14 15 17 18 18 18 18 18 18 18 18 18 18 18 17 17 17 17 17 17 17
28 28 27 27 28 28 28 28 27 28 28 27 26 27 27 27 27 27 27 27 27 28 28 29 30 30 28 26 26 26 25 25 24 23 21 21 21 20 18 17 15 14 13 13 13 13 14 14 13 11 11 12 12 11 11 11 12 12 12 12 12 13 13 15 16 17 18 19 19 19 19 18 19 18 18 18 18 18 18 17 16 17 18 18 18
28 28 27 27 28 28 28 28 28 28 28 27 26 27 28 27 26 27 28 28 28 28 30 31 31 31 29 27 26 26 25 25 24 23 21 21 21 21 20 19 17 15 14 15 15 15 15 15 14 12 12 13 12 12 12 12 12 12 13 13 13 14 15 16 17 18 18 17 17 18 18 17 17 17 17 17 17 19 19 18 18 18 19 19 18
27 27 27 26 26 27 28 28 28 28 27 26 25 27 29 28 27 27 28 29 29 30 31 31 31 31 31 29 27 26 25 24 23 22 22 22 21 22 22 20 18 16 16 16 16 16 16 16 15 14 14 14 14 13 13 12 13 13 14 13 14 14 16 17 17 18 17 15 15 17 17 16 17 18 18 16 16 18 19 18 18 18 17 17 18
26 26 26 25 25 26 27 26 25 24 25 25 25 26 28 28 27 27 28 30 31 31 31 32 31 31 31 30 28 25 25 24 23 23 23 22 21 22 23 21 18 16 16 17 17 17 17 16 16 16 15 15 15 14 13 13 13 13 14 14 15 15 16 17 18 19 18 18 18 18 18 17 16 17 16 15 15 15 14 15 17 17 16 17 18
25 25 24 24 24 25 25 24 23 23 24 24 25 25 26 26 26 27 29 30 31 31 31 31 31 30 28 28 26 24 24 24 24 26 25 23 22 21 21 20 18 17 16 17 17 17 17 17 17 16 16 16 16 16 16 16 16 17 18 17 17 16 16 17 19 19 19 19 19 18 18 17 16 16 15 14 13 14 13 14 16 16 17 19 19
25 25 24 24 23 23 23 23 23 24 24 25 26 26 25 24 25 27 28 28 28 28 28 28 27 27 26 26 25 24 23 24 26 29 28 25 22 20 19 19 18 16 16 16 16 17 17 18 17 17 17 17 17 18 19 19 20 22 23 23 21 18 16 17 19 19 19 18 18 18 17 16 16 16 16 15 15 15 15 15 14 16 17 18 18
25 25 24 23 22 22 23 23 23 23 24 24 25 25 26 25 25 27 27 26 24 23 23 23 23 23 24 25 25 24 23 24 28 32 31 27 23 18 17 18 17 15 16 16 16 17 17 17 17 17 17 16 17 19 20 21 22 23 24 24 23 21 18 18 18 19 18 18 18 17 16 16 17 16 16 16 16 15 16 16 15 16 16 15 15
24 23 23 22 21 22 22 21 22 21 22 23 21 22 25 24 22 22 23 22 21 20 20 21 21 21 22 24 24 23 22 24 28 31 31 30 25 20 16 14 14 15 16 16 17 18 17 16 16 15 14 12 13 16 18 20 21 21 20 21 22 21 20 20 19 19 17 17 17 17 17 17 16 16 16 16 16 16 16 16 16 16 16 16 16
23 22 22 21 21 21 21 20 21 20 20 20 20 21 23 21 19 19 20 20 20 19 18 20 20 20 21 23 24 23 22 23 25 27 30 30 27 24 20 15 15 17 18 17 17 17 16 16 15 13 12 10 11 13 15 15 16 18 19 20 21 22 22 21 20 20 20 18 17 17 18 17 17 17 16 15 16 16 16 16 16 16 17 18 19
22 21 21 21 21 21 20 20 20 20 20 19 19 21 22 20 20 22 23 22 20 19 19 19 20 21 22 23 23 21 20 22 24 26 29 29 26 25 23 19 18 19 19 18 16 16 16 16 14 11 10 10 11 13 13 12 14 17 18 18 19 20 21 20 20 21 22 22 20 19 19 18 18 18 17 15 15 16 17 17 18 18 20 21 22
21 21 21 21 21 21 21 21 20 20 20 19 18 20 22 21 21 23 24 20 18 19 19 19 20 21 22 23 22 20 18 21 24 27 29 28 24 22 22 22 20 19 19 19 17 17 16 14 13 13 12 10 11 12 13 12 13 14 14 15 16 17 18 18 17 17 19 21 20 20 18 17 17 17 17 16 16 16 16 16 18 19 21 23 24
20 21 21 21 21 20 21 21 20 20 20 19 18 19 20 19 19 20 20 17 16 17 15 16 20 21 21 21 20 18 17 19 22 25 27 27 24 21 22 23 20 18 19 19 19 18 17 15 14 14 12 11 11 13 13 13 12 11 12 14 16 17 17 17 17 17 18 18 18 17 17 17 18 18 18 18 17 17 15 14 16 19 21 22 23
20 20 20 20 21 20 20 20 19 19 19 19 19 18 18 18 17 16 18 17 16 16 13 15 20 22 23 23 21 19 20 21 22 23 25 25 23 22 22 21 19 19 20 20 19 17 15 16 15 13 10 10 12 13 14 15 13 11 13 15 15 17 17 16 17 17 16 15 15 15 15 17 18 18 17 17 17 17 15 13 14 17 20 19 18
20 19 19 20 20 20 20 19 18 19 19 19 18 17 17 17 15 15 17 18 17 17 14 13 17 21 24 24 23 22 22 22 22 22 22 21 21 22 22 20 19 20 20 18 16 13 12 13 15 13 11 12 14 15 15 15 13 11 13 14 15 16 17 16 16 16 13 12 13 14 16 17 18 18 17 17 18 18 18 17 16 18 19 17 18
19 19 19 20 19 19 19 19 18 19 19 18 18 17 16 15 14 15 17 17 16 16 15 13 15 18 20 21 23 23 22 21 21 21 20 19 21 23 21 18 19 19 18 16 15 13 11 12 15 16 15 14 15 15 16 15 13 11 12 13 15 16 15 15 15 15 14 13 13 14 16 17 17 17 18 19 20 20 22 24 21 18 17 19 22
18 18 18 18 18 17 17 18 17 17 18 17 17 17 15 14 15 16 15 15 14 14 15 15 16 17 17 18 20 21 22 22 23 23 23 22 23 24 21 18 19 17 15 15 15 14 12 13 14 15 16 15 15 14 14 14 14 12 12 12 13 14 15 14 14 14 15 15 15 16 16 17 18 18 19 20 20 20 20 21 21 20 20 22 24
18 18 17 16 16 16 15 16 16 15 16 17 16 16 15 15 17 16 12 12 14 14 15 16 16 16 17 18 19 21 23 24 23 24 26 25 24 23 21 18 18 15 13 13 13 12 12 12 12 14 15 14 13 12 12 13 13 14 14 14 14 16 18 17 15 14 15 16 16 16 16 16 18 18 19 19 18 18 17 16 18 19 20 23 24
18 17 16 15 15 14 14 15 14 14 15 16 16 16 15 15 17 16 12 12 14 14 14 15 14 14 15 17 17 16 17 18 18 21 24 23 21 22 21 17 16 15 13 12 12 12 12 11 12 13 13 11 11 11 11 13 14 16 17 17 17 18 17 16 14 13 14 15 14 14 14 15 16 17 17 17 17 16 16 17 19 21 23 25 25
18 17 16 15 14 14 14 14 13 13 15 16 17 16 15 15 17 17 14 13 14 14 13 14 14 14 14 14 12 8 7 10 14 16 19 19 18 19 19 16 15 14 13 12 12 12 12 12 11 11 9 9 9 10 11 14 16 17 17 16 14 13 12 13 13 13 14 14 14 14 14 15 16 16 16 16 16 16 17 19 22 24 24 25 24
20 18 16 15 14 13 13 13 13 13 15 17 17 17 16 16 17 17 16 15 14 14 14 14 15 14 11 9 8 7 7 9 12 13 15 16 16 16 17 17 17 16 14 12 11 11 9 9 9 7 7 8 9 11 13 15 15 15 14 12 10 11 12 13 13 13 14 14 14 14 14 14 15 15 15 16 17 18 20 22 23 23 22 22 23
19 19 17 16 14 12 13 13 13 14 15 16 17 17 17 18 18 17 17 15 15 15 14 14 14 13 9 7 7 9 9 10 11 11 13 14 13 14 18 21 20 17 14 10 8 9 9 7 6 6 7 8 10 12 13 13 12 12 10 9 10 12 13 13 13 13 15 15 14 13 14 14 14 15 16 17 19 20 21 21 20 20 20 21 23
19 19 17 16 14 13 13 14 14 14 15 16 17 17 17 17 17 16 15 15 15 14 14 14 13 11 9 8 8 9 9 10 8 8 11 14 15 15 20 22 20 17 15 11 8 8 8 7 7 8 10 12 12 11 9 9 9 9 9 10 12 12 12 12 12 13 14 14 13 13 13 13 15 16 17 18 19 19 18 18 18 19 19 20 21
19 18 17 15 14 14 15 15 15 14 15 16 17 16 16 16 15 14 14 14 13 13 13 12 11 11 9 9 10 8 8 9 8 7 10 14 16 18 20 21 20 18 15 12 10 8 9 10 9 10 11 12 12 10 8 9 9 9 11 12 12 12 12 11 11 13 14 14 14 14 13 14 16 17 17 17 17 16 16 16 18 19 19 20 21
20 19 17 15 14 14 14 15 15 15 14 13 13 14 14 14 14 13 12 10 10 12 11 8 7 9 10 10 10 9 7 9 10 10 12 14 16 19 20 19 19 17 14 11 10 9 9 10 8 7 8 9 10 10 10 11 11 12 13 13 11 12 13 13 13 14 15 15 14 13 14 16 16 16 15 15 16 16 15 16 17 19 20 20 19
19 18 18 16 14 14 13 14 15 14 12 10 11 12 11 12 12 10 7 5 5 9 10 7 5 7 8 9 11 10 8 10 12 12 13 15 16 18 18 16 15 15 15 13 11 10 10 9 8 9 10 11 12 13 13 13 15 16 15 12 11 11 11 11 13 14 13 12 12 13 15 16 15 15 15 15 15 15 15 16 17 18 19 19 18
17 17 16 16 15 15 14 14 14 13 12 11 11 12 11 10 10 8 6 5 5 6 9 8 6 6 7 10 13 12 9 11 13 12 13 17 17 16 17 16 14 13 15 15 12 10 10 10 11 12 13 13 13 13 12 11 13 13 12 11 11 11 10 10 13 14 11 10 12 14 15 15 14 14 14 15 15 15 15 16 17 17 17 18 18
16 15 14 15 15 15 14 13 14 13 11 10 11 12 11 9 8 7 7 7 7 7 8 9 7 6 6 9 12 11 9 10 13 13 15 17 16 15 15 15 14 12 12 12 10 8 10 11 13 13 13 13 13 13 11 11 11 11 10 10 11 13 13 12 10 9 9 11 14 15 14 13 13 14 14 14 15 16 16 15 16 16 16 17 18
13 13 14 15 15 13 12 13 14 13 11 11 11 11 10 8 7 6 6 7 7 7 8 8 7 6 6 8 11 13 11 12 14 14 13 13 14 13 13 12 12 11 10 9 8 8 10 12 13 12 12 12 12 11 11 11 11 11 11 12 13 13 12 8 3 4 9 13 14 13 12 12 13 13 13 14 15 15 15 15 15 16 16 17 17
11 12 14 16 14 12 12 14 13 12 12 12 12 12 12 11 9 7 6 6 6 6 7 8 8 8 9 9 11 12 12 12 13 12 11 11 13 13 13 12 11 11 10 8 8 10 12 13 12 11 12 12 12 11 12 11 11 11 12 13 13 12 9 5 4 7 12 12 11 12 12 12 12 12 13 14 14 14 15 15 15 15 16 16 17
11 12 14 15 14 13 13 13 13 12 12 12 13 12 13 13 11 10 9 8 7 6 6 8 10 10 11 11 10 9 9 9 9 8 9 11 12 12 12 10 9 9 9 8 8 11 12 12 11 11 11 12 12 11 11 11 10 11 12 13 12 10 8 7 8 10 10 9 10 11 11 11 11 12 13 14 14 15 15 15 15 15 15 16 17
13 14 14 14 13 12 12 11 11 11 12 12 12 12 12 11 10 11 11 10 10 10 9 9 10 11 12 11 10 7 6 7 8 9 9 10 11 10 9 8 6 7 8 8 9 10 10 9 9 9 10 11 11 10 11 11 11 12 12 12 10 8 7 8 9 8 8 8 10 11 10 11 11 12 13 13 14 15 15 15 15 15 16 16 17
14 14 14 13 11 11 11 10 9 9 11 12 11 10 11 10 10 10 11 12 12 12 12 12 12 11 10 10 9 9 9 9 10 10 10 10 10 10 9 8 8 8 8 8 7 8 8 8 9 10 10 10 9 9 10 11 12 12 11 9 9 9 9 8 8 7 7 9 10 10 10 10 11 11 12 13 14 14 15 15 15 15 16 17 18
13 13 13 12 11 11 11 10 9 10 11 11 10 9 9 10 10 10 11 12 12 12 12 14 14 12 10 9 10 11 12 12 11 11 11 11 11 12 10 8 8 8 7 7 7 7 7 8 9 9 9 9 10 10 10 10 11 11 10 9 9 9 9 8 9 9 8 9 10 9 9 10 11 11 12 13 14 14 15 15 16 16 16 17 18
12 12 12 11 11 11 10 10 11 12 11 10 10 10 10 10 10 10 11 11 11 10 10 12 12 11 11 12 13 12 13 13 12 12 12 12 13 13 11 9 8 8 7 7 7 7 7 8 8 9 9 9 9 10 9 10 11 11 10 10 10 9 9 9 9 8 8 8 8 8 8 10 10 11 12 13 14 14 15 15 16 16 16 17 17
10 12 14 12 9 9 10 10 11 11 10 10 10 10 10 10 10 10 10 11 11 10 10 11 11 10 12 14 15 15 14 12 11 11 11 12 12 12 10 9 8 8 7 6 6 6 7 8 8 8 7 6 8 10 10 10 11 11 11 11 12 11 9 8 7 6 6 7 7 7 8 10 10 11 12 13 13 14 15 15 16 16 16 17 18
10 12 13 11 8 7 9 10 10 10 10 9 9 9 10 10 10 9 9 10 10 10 10 10 10 11 13 15 16 16 14 12 11 11 11 10 10 10 9 9 9 8 7 7 6 7 8 9 9 8 6 5 6 9 10 10 10 11 11 11 11 10 9 7 7 7 6 6 7 8 8 9 10 11 12 12 13 15 16 15 16 16 16 17 18
10 10 10 9 8 8 9 9 9 10 10 9 9 10 9 9 9 9 9 9 9 8 8 8 8 11 14 15 16 16 14 11 11 12 10 9 10 10 9 8 6 5 6 8 7 8 8 9 9 9 8 7 7 9 10 10 10 10 10 10 9 8 8 7 6 6 6 6 7 8 8 9 10 11 12 13 14 14 15 15 15 16 16 17 17
10 9 10 10 10 10 10 10 10 10 10 10 9 10 10 9 9 8 8 8 8 7 8 7 7 11 16 15 13 15 15 11 9 11 11 9 9 10 9 7 5 4 5 7 8 7 8 9 9 9 10 9 8 9 9 10 10 9 9 9 8 7 6 6 5 5 6 6 7 7 8 9 11 11 12 13 13 14 14 15 15 15 16 17 17
9 10 10 11 11 10 10 10 10 10 10 10 9 9 9 9 8 8 7 8 7 7 8 7 8 13 17 14 10 12 15 12 9 10 11 10 9 9 8 7 7 6 6 6 7 7 7 8 8 9 8 7 7 8 8 8 8 8 8 8 7 6 6 6 6 6 6 6 7 8 9 9 10 11 12 12 12 13 14 14 15 15 16 16 17
9 9 10 11 10 9 9 10 10 9 9 10 10 9 8 7 7 7 7 8 8 7 8 8 7 12 15 14 11 12 15 14 10 10 11 11 10 10 9 8 7 6 5 5 6 6 7 7 8 7 7 6 6 6 6 6 7 8 7 7 6 5 5 6 5 5 6 7 7 8 9 9 10 11 11 12 12 13 14 14 14 15 16 16 16
8 9 10 10 10 10 10 10 10 10 10 10 9 8 7 7 7 7 7 7 7 6 6 7 7 10 12 12 11 13 15 14 12 10 11 11 11 11 10 8 5 4 5 7 7 5 6 8 8 7 6 6 6 5 4 5 6 7 6 5 5 5 5 5 5 5 6 7 8 9 9 9 10 10 11 11 12 13 13 14 14 15 15 16 16
8 9 9 9 9 10 10 10 10 10 9 9 8 8 7 6 6 6 6 6 6 6 6 6 7 10 11 10 11 13 15 15 12 11 11 12 11 11 10 8 6 6 6 7 6 4 4 7 8 7 7 6 5 4 4 5 6 6 5 5 5 4 3 3 4 5 6 7 8 9 9 9 10 10 10 11 12 12 13 14 14 14 15 15 16
8 8 8 9 10 10 10 10 9 9 8 8 8 8 9 8 6 6 6 5 5 6 7 6 6 8 9 9 10 12 14 14 12 12 13 12 11 9 8 8 8 8 8 7 7 6 6 7 8 7 7 6 4 3 4 5 5 5 5 4 3 2 3 4 4 6 7 7 8 8 9 10 10 10 10 11 11 12 12 13 13 14 14 15 15
9 9 8 9 9 9 9 9 9 8 8 7 7 7 8 8 7 7 8 7 5 7 9 8 7 7 7 8 9 10 12 11 10 11 12 11 10 10 8 8 9 10 9 8 8 7 7 8 8 8 8 7 6 5 5 5 6 5 4 4 6 6 6 6 5 6 7 8 8 8 9 10 10 10 10 10 11 11 12 12 12 13 14 14 14
9 9 9 8 8 8 8 8 8 8 7 7 7 7 7 8 8 8 8 7 6 7 8 7 7 6 6 7 8 9 10 10 10 11 12 11 10 11 10 9 9 10 10 9 9 8 8 8 8 8 8 8 7 7 6 6 6 5 5 6 8 8 8 7 6 6 7 8 8 8 9 10 9 9 10 10 10 10 11 11 12 13 13 13 14
7 8 9 8 8 8 8 8 8 8 8 8 8 8 8 7 7 6 5 5 6 6 6 6 7 7 7 8 7 8 9 9 10 11 12 11 11 12 12 11 10 10 10 11 10 9 8 8 8 8 8 8 8 8 7 7 6 7 8 9 9 8 8 7 7 8 9 8 7 8 8 9 9 9 9 9 9 9 10 11 11 12 13 12 13
7 8 8 8 8 8 8 8 8 8 8 8 6 6 5 6 6 6 6 7 7 7 7 7 8 8 8 8 8 8 9 9 10 11 12 13 13 14 13 12 11 11 12 12 11 9 8 8 8 8 8 9 9 9 8 7 8 9 11 10 9 9 9 7 7 9 11 10 8 7 8 8 9 8 9 8 8 9 10 10 11 12 12 11 11
Wind_Direction
195 195 195 196 195 193 194 196 197 199 200 201 203 202 201 201 200 199 197 193 189 187 189 190 190 193 197 198 199 200 198 195 196 197 198 197 196 196 193 193 204 215 224 232 233 230 231 237 245 250 255 260 262 265 267 268 267 267 268 269 270 271 269 271 282 290 291 291 290 288 288 288 283 278 275 273 272 271 267 263 263 264 265 266 268
195 194 193 193 193 192 193 194 195 198 199 200 201 200 200 200 197 194 193 192 189 188 189 189 190 192 196 198 198 199 198 196 196 197 198 199 199 200 194 191 201 211 217 228 234 236 238 242 247 249 251 254 257 260 262 263 263 264 265 267 270 271 268 271 278 282 285 286 287 287 287 287 285 284 282 279 279 278 276 273 269 266 265 266 268
195 192 191 191 191 192 194 195 196 198 198 199 200 200 200 198 194 193 194 191 190 190 190 190 191 191 195 198 198 197 197 197 198 199 199 199 201 202 197 193 201 210 216 225 231 236 241 245 248 249 249 251 252 254 257 259 260 263 266 269 272 275 272 269 268 268 274 279 281 283 286 286 286 287 288 287 284 281 279 278 276 273 270 270 270
194 191 190 190 190 192 194 195 197 198 200 201 200 201 202 199 196 195 194 192 191 192 192 191 191 192 195 198 197 195 196 198 200 200 200 201 201 201 197 195 202 212 219 227 233 238 244 247 248 248 248 249 249 249 252 256 259 262 267 269 271 276 280 276 269 265 271 276 277 277 280 283 285 285 286 287 287 285 283 282 281 277 275 276 275
194 190 190 191 191 192 193 195 197 199 201 202 201 202 202 201 199 196 193 194 194 193 192 192 192 193 194 196 196 195 197 197 199 200 200 202 203 202 198 197 203 213 223 231 237 241 244 246 248 247 245 246 246 247 250 254 259 263 266 269 272 277 281 281 277 274 271 272 273 275 277 279 282 281 281 284 286 285 283 281 281 279 279 281 280
193 190 190 192 192 192 193 195 198 200 201 202 202 202 204 205 203 196 194 198 197 194 193 193 193 194 195 196 196 197 198 196 197 200 199 200 203 203 201 203 206 212 223 234 239 243 246 247 247 245 243 244 244 246 249 252 257 263 266 271 276 281 284 282 282 280 274 270 272 277 279 279 281 281 279 279 279 280 281 282 284 283 282 281 279
191 189 190 192 191 192 194 195 199 200 201 202 202 203 207 211 207 198 197 201 199 197 196 194 193 193 194 195 195 195 196 194 195 199 198 198 201 203 205 208 209 212 222 233 239 242 246 247 246 243 241 242 243 246 249 252 258 264 268 272 277 282 286 288 287 285 281 278 279 282 285 288 288 286 285 283 279 276 278 282 284 283 280 279 278
188 188 188 190 190 192 194 195 197 199 200 201 202 204 209 212 208 200 200 203 201 201 200 195 193 192 193 193 192 191 192 192 193 197 198 198 200 204 208 211 212 215 222 232 239 245 249 247 243 240 238 239 241 243 247 252 257 264 270 275 279 281 283 287 290 289 287 286 284 283 285 287 286 285 288 288 281 276 279 283 283 281 281 279 278
184 186 187 189 190 190 192 195 198 200 202 202 204 207 209 211 210 205 204 205 205 204 203 198 193 191 192 191 188 188 189 190 194 198 199 199 199 203 210 215 217 220 225 233 240 246 248 246 244 242 239 237 236 239 246 250 255 263 270 275 278 280 280 283 287 290 290 289 287 286 286 285 283 284 286 284 280 282 289 289 284 284 286 284 282
180 183 186 187 187 186 189 196 199 202 204 204 206 212 213 211 211 213 211 208 207 207 205 201 195 190 188 186 183 184 187 191 198 200 198 197 198 203 212 219 222 224 228 235 243 246 245 242 242 243 243 241 240 243 249 254 259 266 271 273 273 274 277 280 282 286 288 287 287 289 290 288 289 291 290 287 286 288 291 290 288 290 292 289 286
176 181 184 184 184 183 186 195 198 198 203 206 208 212 217 218 217 218 217 211 208 209 208 203 199 193 187 181 180 182 186 194 202 203 201 200 201 204 214 223 226 231 234 237 242 245 243 241 240 242 244 242 242 246 251 258 263 265 268 270 270 269 272 274 276 280 282 282 283 287 288 289 292 293 292 293 294 294 294 293 292 292 291 290 289
174 179 181 180 182 183 185 195 199 197 202 208 206 207 215 221 219 213 210 210 210 211 208 203 200 194 185 180 181 183 187 198 205 206 205 206 205 206 213 223 231 239 244 242 241 242 242 241 240 241 240 232 235 250 260 265 267 268 270 273 273 273 272 270 269 269 271 274 278 279 282 286 290 291 294 300 301 300 299 296 293 292 290 288 287
172 176 178 178 181 184 188 196 199 198 201 202 198 203 213 218 212 206 210 217 216 209 203 197 191 187 181 180 183 185 190 201 208 209 210 211 213 214 218 228 238 242 246 245 241 239 237 237 238 238 237 234 241 258 263 261 260 263 264 267 272 276 276 272 267 262 260 263 270 275 276 280 285 290 297 303 303 300 298 296 295 295 291 287 287
170 173 175 176 180 184 188 194 194 194 197 194 191 202 212 210 209 216 226 229 222 213 205 192 182 178 177 178 181 184 191 201 208 212 212 212 216 219 222 233 241 240 244 245 242 238 234 232 234 234 238 245 251 256 256 251 250 251 251 254 266 276 276 273 269 264 258 255 259 267 273 277 285 291 297 301 300 297 296 295 296 294 290 288 289
169 172 174 176 179 182 187 191 188 187 193 193 193 203 210 207 208 220 228 227 218 214 207 189 179 179 179 181 183 185 193 203 211 215 213 212 218 220 220 231 239 238 241 243 242 241 237 230 227 229 237 249 253 252 255 256 255 256 260 266 274 280 280 276 271 265 260 255 256 263 270 277 285 291 294 295 292 291 292 292 291 291 288 288 288
169 170 172 174 176 179 184 186 186 186 189 191 194 202 208 210 211 216 223 221 212 207 197 182 182 184 179 182 186 188 195 205 211 212 210 211 219 223 224 232 236 234 237 240 241 243 239 229 226 230 239 249 252 253 260 265 265 270 278 281 283 285 284 283 279 273 270 267 263 264 270 279 286 290 293 293 291 290 290 288 289 291 288 287 287
168 169 169 170 172 175 178 180 183 186 186 186 192 199 205 211 212 211 217 220 212 203 189 181 189 191 186 187 192 195 202 210 211 210 210 215 223 227 228 231 231 232 236 237 238 240 233 223 222 225 230 240 249 257 268 273 273 277 281 284 287 287 285 286 287 284 279 274 273 275 280 286 289 291 292 291 290 288 280 274 283 291 290 287 285
166 166 166 166 167 169 172 174 178 181 182 184 192 199 202 204 205 206 213 218 216 210 199 188 193 197 196 197 200 202 206 212 214 215 217 225 230 227 224 227 231 232 234 235 235 232 223 218 220 224 231 240 251 261 267 269 270 274 280 284 286 286 286 290 293 291 281 274 284 294 295 293 293 293 291 288 287 282 267 257 268 283 284 280 281
163 163 162 161 162 163 166 171 175 178 182 186 191 195 194 195 201 206 211 216 217 213 207 201 199 195 192 197 203 207 211 214 215 217 221 223 224 223 223 229 232 230 229 234 232 221 217 227 233 237 242 250 258 263 264 263 265 269 276 281 282 283 289 295 297 297 290 283 288 293 292 292 292 289 287 286 287 282 268 259 262 267 265 269 279
158 157 155 155 158 160 163 169 172 176 181 183 186 189 186 186 195 201 205 210 212 207 204 204 203 197 195 203 208 212 217 221 222 224 225 221 219 221 224 229 232 228 223 222 219 212 216 230 238 244 251 257 261 261 259 260 264 267 269 275 279 282 289 296 297 297 293 288 286 284 284 288 289 286 287 288 289 287 277 264 259 259 263 275 286
148 147 147 150 154 156 159 164 167 172 176 175 178 184 182 179 183 188 194 203 205 202 201 205 209 210 211 218 221 220 223 227 226 223 219 216 216 220 222 227 231 223 206 200 204 208 217 228 241 249 252 256 256 253 256 263 269 268 265 265 267 270 278 285 289 290 287 283 282 282 285 290 292 292 294 296 297 297 291 279 273 276 283 290 293
134 136 140 144 148 152 154 157 162 165 168 169 171 173 173 171 176 183 192 197 196 196 200 206 213 217 219 224 227 225 223 222 214 205 204 209 216 219 220 225 227 214 199 201 210 218 228 241 250 248 241 240 245 247 257 269 270 269 268 268 267 268 270 276 281 282 282 281 282 285 291 294 295 296 297 299 300 299 295 292 291 292 292 290 289
129 132 138 142 146 150 150 153 158 159 165 172 169 165 165 166 171 183 192 190 189 191 196 203 210 213 215 219 221 217 204 198 194 194 201 210 217 218 218 221 218 204 193 201 216 230 242 243 238 234 229 231 242 254 268 274 273 271 271 269 268 268 268 273 276 274 275 280 283 285 289 292 295 298 299 298 298 297 296 295 294 292 290 286 284
131 133 136 140 145 149 149 151 155 155 161 167 163 163 170 168 169 182 189 185 186 190 194 202 209 210 208 203 202 203 193 187 194 203 207 208 209 211 212 215 214 206 200 207 221 229 229 219 213 223 235 240 251 265 273 275 273 270 267 262 263 270 274 274 271 268 273 280 282 284 289 295 298 299 298 297 298 298 297 295 292 290 288 285 284
132 133 135 139 145 150 150 153 157 155 157 162 161 166 174 174 174 184 189 188 191 195 198 205 207 203 193 177 189 205 192 179 191 203 201 200 204 207 208 210 213 210 206 211 218 211 207 211 219 232 244 254 267 275 278 278 274 264 260 265 273 277 275 268 265 271 280 283 284 288 294 297 297 298 299 299 298 297 294 293 292 291 290 289 288
133 133 134 138 146 152 154 158 160 159 162 168 168 169 174 177 178 183 187 191 196 200 207 209 196 179 169 172 194 204 183 171 186 204 196 194 199 204 206 208 210 209 208 213 213 206 212 226 239 254 267 274 277 276 272 274 272 263 263 278 280 271 261 260 271 283 286 286 289 293 295 298 300 300 300 297 294 292 293 294 296 296 296 297 297
136 132 134 142 152 159 160 160 160 161 166 172 174 173 175 177 176 179 188 196 200 202 206 201 179 158 158 180 194 192 179 178 192 202 194 192 195 200 203 203 204 207 210 214 215 219 233 244 254 272 280 276 269 259 248 249 258 261 262 265 258 245 245 264 286 293 288 287 291 291 293 299 300 298 297 295 293 293 296 297 299 299 300 302 300
137 134 138 147 155 158 159 160 162 164 165 168 170 171 174 177 177 181 191 203 208 200 189 180 172 163 162 176 187 184 183 195 200 192 185 185 191 196 198 199 202 204 205 206 208 214 227 241 254 268 269 257 243 229 220 220 226 234 242 243 237 241 258 275 282 281 280 283 287 290 294 298 297 296 298 297 295 297 299 299 299 299 301 302 300
139 139 143 148 152 153 156 163 166 160 151 145 147 147 155 167 171 170 177 198 208 186 171 170 198 192 174 182 198 199 196 204 209 200 183 179 184 189 192 195 197 197 198 201 203 200 203 220 237 231 223 223 220 215 214 216 220 224 229 232 240 255 270 281 282 281 281 283 287 293 295 295 296 298 298 297 298 301 301 301 300 298 299 300 299
139 142 147 152 155 157 161 167 167 161 152 146 140 134 138 156 162 155 161 177 177 169 168 170 179 182 178 187 198 201 199 203 210 201 178 173 177 181 185 189 191 193 196 199 204 213 222 240 252 239 227 227 231 235 243 247 246 243 236 232 241 251 258 273 283 284 282 285 292 294 293 293 295 297 297 299 302 304 303 301 300 300 301 303 304
143 151 157 155 156 162 166 163 158 156 153 149 146 142 141 150 157 159 171 178 169 164 172 175 170 167 171 177 184 192 197 198 199 191 178 176 178 179 182 185 186 190 193 194 206 235 249 256 263 263 261 262 258 257 264 270 273 275 268 258 262 268 273 278 280 274 276 289 295 292 291 292 293 294 298 302 304 304 305 305 304 304 305 307 309
153 158 153 146 151 163 164 155 151 149 146 147 152 152 149 150 157 165 178 188 189 180 179 191 201 192 180 177 181 186 186 185 188 191 190 191 192 190 190 190 190 197 204 206 223 251 257 257 262 268 274 278 277 276 279 278 279 284 283 279 278 281 287 297 308 287 286 290 291 290 289 290 292 295 301 304 304 305 307 308 309 309 309 312 313
154 146 137 138 150 158 148 145 150 151 151 158 162 162 168 175 174 168 165 180 200 204 204 213 215 196 182 183 183 180 176 177 184 190 196 201 201 199 198 199 204 216 225 229 239 249 252 256 262 267 272 279 282 285 286 283 281 282 284 286 287 286 285 293 300 287 282 279 281 286 289 291 296 302 305 305 307 308 310 310 312 313 315 316 317
143 139 139 144 156 158 149 151 159 157 158 166 165 166 179 184 173 163 160 161 168 177 188 198 197 187 181 181 181 181 182 183 187 190 192 195 198 199 201 206 215 227 231 232 242 253 259 264 267 268 274 280 282 285 292 292 285 281 281 284 284 280 271 272 279 279 277 279 285 290 293 298 305 306 306 308 310 310 312 312 314 318 321 319 318
134 138 143 147 155 155 152 158 165 161 161 168 169 172 180 180 167 164 167 165 160 152 147 157 171 177 179 179 178 181 182 178 179 181 182 184 186 187 189 192 202 214 216 219 235 256 268 276 277 271 272 277 279 283 291 291 284 280 279 278 276 274 272 275 277 278 284 291 293 293 297 302 305 306 307 310 312 313 314 315 318 321 322 320 320
138 141 145 149 151 148 147 156 163 158 160 168 173 174 176 175 173 172 170 165 158 146 134 134 142 150 161 169 170 169 165 163 164 166 168 175 180 180 181 188 196 203 205 211 228 249 260 269 275 275 276 283 285 282 284 283 280 280 281 279 279 282 283 284 289 296 298 294 290 294 299 302 305 310 311 311 314 314 314 317 320 321 321 321 319
150 150 150 150 147 144 147 154 154 152 157 166 171 170 169 171 172 169 164 160 154 141 132 133 133 131 134 146 155 157 156 156 158 162 166 173 178 182 194 218 226 217 213 224 242 253 257 260 265 269 275 284 286 282 282 281 278 279 279 275 274 276 279 285 292 293 287 285 286 293 301 305 309 313 312 312 315 315 316 321 323 320 320 321 318
159 155 153 149 147 150 155 155 152 154 160 167 169 169 167 166 167 165 161 156 153 146 141 143 146 144 142 147 154 158 157 155 157 164 169 175 182 190 209 240 247 230 223 233 240 246 254 261 268 273 276 279 282 286 286 280 277 278 278 277 277 276 271 272 277 271 265 275 287 295 305 310 311 313 315 314 315 317 321 323 322 321 323 323 321
146 144 148 148 150 158 161 157 156 163 171 174 171 170 167 165 168 171 166 162 166 165 156 156 165 163 153 152 159 161 159 159 162 167 174 184 192 201 218 237 241 235 236 240 237 241 251 259 267 273 272 269 278 286 285 279 278 281 281 281 284 284 277 273 276 272 271 285 299 305 309 311 312 314 315 314 316 320 321 321 321 324 325 324 323
149 144 148 152 158 159 157 157 160 168 174 173 168 170 171 170 174 175 167 165 172 172 164 167 175 167 156 159 167 168 168 173 180 179 180 189 199 209 221 229 232 229 229 235 245 255 259 260 262 260 244 231 255 271 273 272 276 280 282 282 282 282 281 281 282 284 289 298 305 306 307 310 315 317 315 314 317 318 317 319 324 326 325 324 324
166 152 150 159 162 154 152 158 163 165 168 169 170 173 173 171 172 172 168 168 172 171 171 177 180 171 170 177 184 182 181 186 190 187 186 194 204 209 215 224 231 230 227 236 246 249 251 260 272 274 265 252 253 262 268 272 275 278 281 283 280 278 280 278 276 284 297 300 300 304 310 315 317 315 312 313 314 315 318 324 327 327 326 327 327
171 159 158 162 161 156 159 163 160 159 165 170 172 172 170 168 169 171 173 174 170 170 178 182 166 164 175 185 188 188 193 203 206 197 196 203 209 205 203 214 236 247 246 254 260 252 249 260 273 277 274 268 263 264 266 269 275 278 281 283 281 279 281 283 286 295 299 298 301 310 314 314 313 309 309 311 315 320 324 326 327 329 330 329 329
173 167 165 165 164 165 165 160 157 162 170 169 164 163 164 166 168 170 173 175 169 170 184 181 145 145 163 176 180 188 204 223 226 206 200 204 204 201 202 215 229 227 223 243 262 266 269 274 274 271 268 261 257 264 268 271 278 283 280 280 282 282 284 288 294 301 303 304 310 314 312 311 311 310 311 315 320 323 324 326 329 332 332 329 330
175 167 165 168 169 165 157 153 156 162 160 153 149 153 160 166 169 170 173 177 176 177 189 190 160 145 159 173 180 191 210 228 229 213 207 207 206 206 210 214 216 210 211 235 255 259 270 280 278 267 259 248 247 259 268 271 275 276 275 276 278 277 281 288 295 307 315 315 314 312 310 312 312 311 314 320 324 323 324 328 332 332 331 331 332
176 169 166 166 164 157 151 148 145 140 136 137 143 153 166 174 175 173 173 176 182 187 198 203 183 159 162 177 188 194 209 221 219 210 211 213 211 210 210 206 202 206 228 253 261 255 263 281 281 267 251 244 245 249 253 258 266 270 272 273 270 274 289 300 308 315 316 314 311 310 310 312 312 312 316 322 323 323 325 329 331 331 331 333 333
168 166 163 154 148 146 145 139 134 135 144 154 158 163 170 170 166 168 171 174 183 192 208 220 201 173 170 187 198 198 206 215 213 206 211 218 220 216 212 212 217 221 229 245 252 242 251 276 284 278 266 258 248 235 237 252 259 256 255 261 268 279 295 307 319 325 319 313 311 310 309 309 309 309 314 319 321 323 326 327 330 333 333 332 331
141 145 142 133 134 143 148 146 145 151 161 166 167 169 168 162 162 175 179 177 186 199 209 221 214 191 186 197 203 200 205 213 216 211 210 215 222 224 216 212 219 227 232 242 249 251 261 275 280 278 273 268 255 234 243 256 254 246 246 248 236 223 243 270 307 324 315 306 307 306 303 304 305 308 315 321 322 323 325 326 331 336 334 329 331
128 137 141 139 146 156 157 152 156 162 165 170 177 174 161 157 170 185 180 173 192 215 215 212 212 209 207 209 210 209 210 214 221 224 222 219 222 228 225 214 215 226 236 241 239 241 255 272 279 273 266 263 257 248 248 248 242 238 239 224 210 220 252 282 308 315 301 297 299 298 295 297 302 306 315 319 318 321 325 327 333 337 332 328 332
140 148 152 155 161 163 157 157 166 169 164 164 171 169 163 169 185 192 186 182 200 227 231 226 224 226 226 220 216 216 215 215 220 226 226 221 222 226 226 221 219 226 236 243 241 236 242 261 275 274 264 258 255 248 241 240 237 231 221 215 221 243 278 301 315 319 313 309 303 295 292 296 301 305 311 314 316 322 328 330 333 334 329 328 334
152 155 160 163 166 165 165 169 172 166 159 165 176 179 185 196 203 201 202 214 220 223 233 241 242 240 238 234 231 228 227 229 232 230 224 221 222 224 225 225 224 224 233 245 253 253 254 262 271 268 257 252 251 247 241 239 232 219 212 216 232 263 294 307 317 330 335 327 307 291 291 296 300 302 308 312 317 325 330 329 330 330 328 329 335
163 165 166 166 167 169 173 176 176 169 169 179 182 173 185 215 218 202 199 216 224 223 227 239 245 246 247 247 247 244 240 240 240 236 229 225 225 225 226 227 224 221 227 240 249 252 254 259 264 262 252 247 246 246 244 238 226 219 221 230 249 274 293 306 323 338 341 334 317 295 288 290 295 301 308 314 321 327 326 323 324 326 326 332 338
Height
745 748 751 755 758 761 764 767 770 773 775 778 780 782 784 786 787 789 792 794 795 796 799 800 802 804 806 807 809 811 811 812 814 816 818 818 818 819 819 819 822 824 827 828 828 828 827 827 828 828 828 829 829 829 829 829 829 829 829 829 828 828 828 827 825 822 820 821 821 821 820 820 819 819 818 817 817 817 816 815 814 813 812 811 810
740 743 747 750 754 756 760 763 766 769 771 774 776 779 781 782 783 785 787 789 790 791 793 795 797 799 801 804 805 808 809 810 812 813 815 816 816 817 817 818 820 822 824 826 827 827 826 826 826 826 827 827 827 827 827 828 828 827 827 827 826 826 826 825 824 823 820 819 819 818 818 818 817 816 816 815 814 814 813 812 812 811 809 808 807
735 739 742 746 749 753 756 759 762 764 767 770 772 775 777 777 779 781 783 784 786 787 789 791 793 795 797 800 802 804 806 808 810 811 812 813 814 816 817 817 819 821 822 824 825 825 825 825 825 825 825 825 825 826 826 826 826 826 826 825 825 824 824 824 824 823 821 819 818 817 816 815 815 814 813 812 811 811 811 810 809 808 807 806 805
731 735 738 742 746 749 752 755 758 760 763 766 768 771 772 773 774 776 779 781 782 783 786 787 789 791 793 796 798 800 803 805 807 808 809 811 812 814 815 816 818 820 821 822 823 824 824 824 823 823 823 824 824 824 824 824 825 824 824 824 823 822 822 822 822 822 820 817 816 815 814 813 812 811 810 810 809 808 808 807 806 805 804 803 802
726 730 734 738 741 744 748 751 754 756 759 762 764 766 767 768 770 772 775 777 778 780 781 783 784 786 789 792 795 797 799 801 803 805 807 809 810 812 813 814 816 817 819 820 820 821 822 822 821 821 821 822 822 822 822 823 823 823 822 822 822 821 821 821 820 819 818 816 814 813 812 811 810 809 808 807 806 805 805 804 803 802 802 801 800
722 726 730 734 737 740 743 746 749 752 755 758 760 762 763 764 766 768 770 772 774 775 776 777 779 782 785 788 791 793 796 798 800 803 805 807 808 810 811 812 813 814 816 817 818 819 819 819 819 819 819 819 820 820 820 821 821 821 820 820 820 820 820 819 818 817 815 813 812 810 809 808 808 806 805 805 804 802 802 801 801 800 799 799 798
718 722 726 730 733 737 739 742 745 748 751 754 756 758 758 759 762 764 766 767 769 770 771 773 774 777 780 783 786 790 793 795 798 801 803 804 806 807 808 809 810 810 812 814 815 816 816 817 817 817 817 818 818 818 819 819 819 819 819 818 818 818 817 817 816 815 813 811 811 809 807 807 806 804 803 803 801 800 799 798 797 797 797 796 795
715 719 723 726 730 733 736 739 743 746 749 751 753 754 754 756 759 761 762 763 764 765 766 768 770 772 776 779 782 787 790 792 795 797 799 801 803 804 806 807 807 807 809 811 813 813 814 814 815 815 815 816 816 817 817 818 818 817 817 817 816 816 815 814 814 813 812 810 809 807 806 805 804 802 801 800 799 798 796 796 795 794 794 793 792
712 716 719 723 726 729 733 737 740 743 746 747 750 751 751 753 756 757 757 758 760 761 763 764 766 769 772 776 780 783 786 788 790 792 795 798 800 801 803 805 805 805 806 808 810 811 811 811 811 812 812 813 814 814 815 815 815 815 815 815 815 814 813 812 812 811 810 808 807 805 804 802 801 800 799 798 797 796 794 794 793 792 791 790 789
709 713 716 720 723 727 731 735 737 740 742 744 746 748 749 751 752 754 754 756 757 759 761 762 764 767 770 773 776 779 782 784 786 788 792 795 797 798 800 802 803 803 804 805 806 807 807 808 808 809 809 810 811 811 812 813 813 813 813 813 812 812 811 810 810 809 808 806 805 803 801 799 798 797 796 796 795 794 793 793 792 790 790 787 786
706 710 713 717 721 724 728 732 734 737 739 741 743 745 747 748 749 751 753 755 757 758 760 762 764 766 768 771 773 775 778 781 782 785 788 791 794 796 798 800 801 801 801 802 803 804 804 804 805 805 806 807 808 809 809 810 811 811 811 810 810 809 809 808 808 807 806 804 803 802 800 798 797 796 794 794 793 792 791 791 790 788 787 785 783
703 708 711 715 719 722 726 729 732 734 736 739 741 742 745 747 748 750 752 754 756 757 759 761 763 765 767 768 771 772 775 778 780 783 786 789 792 794 796 797 798 799 799 799 800 800 801 801 801 802 803 804 805 806 806 808 808 808 809 808 807 807 806 806 805 805 804 803 801 800 798 796 795 794 793 792 792 791 790 789 788 787 785 784 781
702 706 709 713 716 720 723 726 729 732 734 736 739 740 743 745 746 748 750 753 755 756 757 759 761 763 765 766 768 770 773 776 778 782 785 787 789 791 793 794 796 797 797 796 797 797 797 798 798 799 800 801 802 802 803 804 806 806 806 806 804 804 803 803 802 802 801 801 799 798 796 795 794 793 793 792 791 790 789 788 787 785 783 782 780
700 703 707 711 714 717 721 723 726 729 731 734 736 738 741 743 744 747 749 751 753 754 756 757 758 760 762 764 766 768 771 773 776 780 783 785 787 789 790 793 794 794 793 793 794 794 794 795 795 796 797 797 798 799 800 801 803 804 803 802 801 800 799 798 798 797 798 798 797 795 794 794 793 792 792 791 790 789 788 787 785 784 782 780 778
697 701 705 708 711 714 717 720 723 726 729 732 733 736 738 740 742 745 747 749 750 752 754 755 755 757 759 762 764 767 769 771 773 777 780 782 785 786 788 790 791 791 790 790 791 791 792 792 792 793 794 795 796 796 797 798 800 800 800 798 797 797 796 795 794 794 794 794 794 793 792 792 792 791 791 790 789 787 786 785 784 782 780 777 775
695 698 702 705 708 711 714 717 721 724 727 730 732 734 736 738 740 743 744 746 748 750 752 752 753 756 758 760 763 765 767 769 771 774 777 779 782 783 785 786 787 787 787 787 788 789 790 789 789 790 792 793 793 794 794 795 796 796 796 795 794 793 792 792 792 791 791 791 791 790 790 790 790 789 788 788 786 785 784 783 782 781 778 774 771
692 696 699 702 705 709 712 715 718 722 725 727 730 733 735 737 739 741 743 745 746 748 750 749 751 754 756 758 761 763 766 768 769 771 774 776 778 780 781 783 783 783 783 784 786 787 788 787 787 788 790 790 791 791 791 792 792 793 793 792 791 790 789 789 789 788 788 788 788 788 787 787 787 786 785 785 783 782 781 780 779 778 775 771 768
690 693 697 700 703 707 710 713 716 719 722 725 728 731 733 736 737 739 742 743 745 747 748 749 751 752 754 757 759 761 764 766 767 769 771 774 775 777 778 779 779 779 780 782 783 785 786 785 785 786 788 788 788 788 789 789 790 791 791 790 789 788 787 787 787 786 785 785 785 785 784 784 783 782 782 781 779 779 778 776 775 774 772 769 765
689 693 696 699 702 705 708 711 714 717 720 723 726 729 731 734 736 738 741 742 744 745 747 748 750 751 753 755 757 760 762 764 765 767 768 771 772 774 775 776 776 776 778 780 782 783 783 783 783 784 785 785 785 786 786 787 788 788 789 788 787 786 785 785 785 785 784 784 783 783 782 781 781 779 778 776 775 774 772 771 771 770 768 766 762
688 692 695 698 701 704 706 710 713 715 719 722 725 728 730 733 735 738 740 742 743 744 746 748 749 751 752 754 756 758 759 761 763 764 766 768 770 771 773 773 773 774 775 777 780 780 780 780 781 781 782 782 783 783 784 785 785 786 787 786 786 785 784 784 784 784 784 783 782 782 781 779 778 776 774 772 770 769 768 767 767 767 765 762 759
688 692 695 698 702 704 706 709 712 714 718 721 724 727 729 731 734 736 739 740 742 743 745 747 748 750 751 752 754 755 756 758 759 761 763 765 767 768 770 771 771 772 773 775 777 777 777 779 779 779 779 780 780 781 782 783 783 784 784 784 784 783 783 783 783 783 782 781 780 779 778 776 775 773 771 769 768 767 766 766 765 764 763 760 758
689 693 696 700 704 706 708 710 711 714 717 720 723 726 728 730 732 735 737 739 740 742 743 745 747 748 749 751 751 753 755 756 757 759 761 763 765 766 768 769 769 770 771 773 774 775 775 777 777 776 777 778 779 779 780 781 781 782 782 782 782 782 782 782 782 781 781 779 778 777 775 774 773 771 770 768 767 766 766 765 764 763 762 760 758
689 694 698 701 705 707 709 710 711 714 717 719 722 724 726 728 730 733 735 736 737 739 741 743 744 745 747 749 750 752 754 755 756 758 760 762 763 764 766 767 768 769 770 771 772 773 774 774 774 775 775 776 777 778 779 779 779 780 780 780 780 781 780 780 780 780 779 777 776 775 774 772 771 769 768 767 766 766 765 764 763 761 760 758 756
690 694 698 702 706 708 709 710 711 714 716 719 720 722 725 727 729 731 733 733 735 736 738 740 742 743 746 747 749 752 754 755 756 758 759 760 762 763 765 766 767 767 769 770 770 771 772 772 773 774 774 775 776 777 777 778 778 778 779 779 779 779 779 779 779 778 777 775 774 773 771 770 769 768 767 767 765 765 764 762 760 759 757 755 753
691 693 696 701 706 708 709 711 713 714 716 718 719 721 724 725 727 729 730 731 732 734 735 737 739 742 745 746 748 751 753 753 754 756 757 758 760 762 763 764 765 766 768 769 769 769 770 771 772 773 774 774 775 775 776 777 777 777 778 778 778 778 778 778 777 776 775 774 773 771 770 769 768 767 766 765 764 763 762 760 758 756 754 751 749
692 694 696 700 705 708 709 711 713 715 716 718 719 721 722 724 725 727 728 729 731 732 734 735 738 740 744 746 748 750 751 751 752 753 754 755 757 759 760 762 763 765 766 767 767 767 769 770 771 772 773 773 774 774 775 776 776 776 777 777 777 777 777 776 775 774 774 773 771 770 769 768 767 766 765 764 762 761 759 758 755 753 751 748 746
691 693 696 701 705 707 709 711 713 715 716 717 718 720 721 723 724 725 726 727 729 731 732 735 737 740 743 746 747 749 749 750 751 751 752 752 754 757 759 760 762 764 765 765 766 767 768 769 770 771 771 771 772 772 773 774 774 775 775 774 774 774 774 773 773 774 773 772 771 769 768 767 766 764 763 762 760 759 757 756 754 751 749 747 743
689 691 695 701 705 707 709 711 712 714 716 717 718 719 720 722 723 724 725 726 728 729 732 735 737 740 742 745 747 748 749 750 751 751 751 752 754 756 758 759 761 762 763 764 766 767 768 768 769 769 769 769 770 770 770 770 771 771 771 771 771 771 771 770 770 772 772 771 770 768 767 766 764 763 761 760 758 757 755 754 752 750 747 745 741
687 690 695 700 704 707 709 711 712 714 715 716 717 718 719 720 722 723 725 726 727 729 731 734 737 739 742 745 748 748 748 748 749 749 749 751 753 755 756 758 759 760 761 762 764 765 766 766 767 767 767 767 768 767 767 767 766 767 768 768 768 769 768 768 768 769 769 769 768 767 766 764 762 761 759 758 756 755 754 752 750 748 745 743 739
688 691 695 699 703 706 708 710 711 713 715 716 717 718 719 720 722 723 725 726 728 729 731 734 736 738 740 743 745 745 746 746 747 748 749 750 752 754 755 756 757 758 759 761 762 763 763 764 764 763 763 764 764 764 763 763 763 764 765 766 767 767 766 766 766 766 767 767 767 766 764 762 761 759 758 756 754 753 752 750 748 746 743 740 737
689 692 694 697 701 703 705 707 710 712 714 715 716 718 719 721 722 723 725 727 728 730 731 733 736 737 738 739 741 743 744 745 747 748 749 750 752 753 754 755 756 757 759 760 762 762 762 762 762 761 760 761 760 760 760 760 761 762 762 763 764 764 763 763 763 764 766 766 765 764 762 761 760 758 756 755 753 751 750 748 746 744 741 738 735
688 690 693 696 700 702 703 705 708 711 713 715 716 717 719 721 723 724 726 727 728 730 732 733 735 736 737 738 740 742 743 745 746 747 748 750 751 752 753 754 755 757 758 760 761 762 761 761 761 760 760 759 758 758 758 759 760 761 761 761 761 761 761 762 762 764 765 765 764 763 761 759 758 756 755 753 752 750 748 746 744 742 739 736 734
687 689 692 696 700 702 703 705 708 710 712 714 715 717 718 720 721 724 726 727 729 730 732 733 735 736 737 738 740 741 743 744 745 746 748 749 750 751 753 754 756 757 758 760 761 761 760 759 759 758 758 758 757 757 758 759 759 760 760 760 760 761 762 763 763 764 764 763 762 761 759 758 756 755 753 752 750 748 746 744 742 740 737 735 733
689 691 693 696 699 700 701 704 707 708 711 712 713 715 717 718 719 721 724 726 728 730 732 733 734 736 737 738 739 741 743 744 745 746 747 748 750 751 753 755 756 757 759 760 760 760 758 757 757 757 758 758 758 758 759 759 759 760 760 761 761 762 762 762 762 762 762 761 760 759 757 756 755 754 752 750 749 747 745 743 741 739 737 735 732
690 693 694 696 697 698 700 702 704 706 709 711 712 713 714 715 717 719 722 723 726 729 731 733 734 735 736 737 739 740 742 743 744 745 747 748 750 752 754 756 757 758 759 760 760 759 758 757 757 757 758 758 759 759 760 760 760 759 760 760 761 762 762 761 761 760 760 759 759 757 756 755 754 753 751 749 748 746 744 742 740 738 736 734 732
691 694 695 696 697 697 699 702 703 704 707 710 710 711 712 714 716 718 719 721 723 727 730 732 733 735 736 737 738 740 741 743 744 745 747 748 750 752 754 755 756 757 757 758 758 758 757 757 758 758 758 759 759 760 760 760 760 760 760 761 762 762 761 760 760 759 759 759 758 756 755 754 753 751 750 748 747 745 743 741 739 737 735 734 731
692 693 694 696 697 698 700 702 703 705 707 709 710 711 712 713 715 716 718 720 722 725 729 731 732 734 736 737 738 740 741 742 744 745 747 749 750 752 753 753 753 754 755 756 756 757 757 758 758 759 759 759 759 759 759 760 760 760 761 762 762 762 761 760 759 759 758 758 756 755 754 753 751 751 749 748 746 744 742 740 739 736 734 732 730
691 692 693 695 696 698 700 702 703 705 707 708 709 710 711 713 714 715 717 720 722 725 728 729 731 733 735 737 739 740 741 742 744 746 748 749 750 751 752 752 751 752 753 754 755 756 757 758 758 758 758 759 759 759 759 760 760 760 760 761 761 760 759 758 758 757 757 756 754 754 753 752 751 750 749 747 746 744 742 740 738 735 733 731 729
691 692 693 695 696 698 700 701 703 705 706 707 709 710 711 713 714 715 717 720 722 724 727 729 730 732 734 736 738 739 741 743 745 747 748 749 750 750 750 750 750 751 752 753 755 756 756 757 758 758 758 759 759 760 760 760 760 760 760 760 760 759 757 756 756 755 755 754 753 753 752 751 751 750 749 747 745 744 742 740 737 735 732 730 728
692 693 694 695 697 698 699 701 703 704 705 707 708 710 711 712 714 715 717 719 721 723 725 727 729 731 733 735 737 738 741 743 744 745 746 748 749 749 749 749 749 750 752 753 754 755 756 756 756 756 757 757 759 759 760 759 759 760 759 759 759 758 756 755 755 754 754 754 753 753 752 751 750 750 748 747 745 743 741 739 736 734 732 730 727
692 694 695 696 697 698 699 701 702 703 705 707 708 710 712 713 714 715 717 718 720 722 724 726 728 730 732 734 736 738 740 741 741 742 744 745 747 748 748 748 749 750 751 752 753 754 755 754 755 755 755 755 756 757 758 758 758 758 758 758 757 756 755 754 754 754 753 753 753 752 752 751 750 749 748 746 745 743 740 738 736 734 732 729 727
692 694 695 696 697 698 699 700 702 703 706 707 708 710 712 713 714 716 717 718 720 722 724 726 728 729 731 733 735 737 738 739 739 740 742 743 745 746 747 748 748 749 750 751 752 752 753 753 753 754 753 754 755 755 756 756 757 757 757 757 756 755 754 753 753 753 753 753 753 752 752 751 750 749 747 745 743 742 739 737 736 734 731 729 727
691 693 694 695 696 697 698 700 702 704 706 707 709 711 713 714 715 716 717 718 720 722 723 725 727 729 731 733 735 736 737 738 738 739 740 742 743 744 746 747 748 749 750 751 751 752 752 752 752 753 753 753 754 754 755 755 756 757 757 756 755 754 754 754 753 753 753 752 752 752 751 751 749 748 746 745 743 741 739 737 735 733 732 729 727
691 692 694 695 695 697 698 700 703 705 707 708 710 712 713 714 715 716 717 718 720 722 723 725 726 729 731 733 734 735 737 737 737 738 739 741 742 743 744 746 747 748 749 750 751 751 752 752 752 752 752 753 753 753 754 755 756 756 756 755 754 754 754 753 753 753 753 753 752 752 751 750 749 747 745 744 743 741 739 737 735 734 732 729 727
691 692 693 694 695 697 699 701 704 706 707 709 711 713 714 715 715 716 717 718 720 722 723 724 726 728 730 732 733 734 735 735 736 737 738 739 740 741 743 744 746 746 747 748 749 750 752 752 752 751 752 752 752 753 753 754 755 755 755 754 754 754 753 753 753 753 753 753 752 751 750 749 748 747 745 744 742 741 739 737 735 734 731 729 727
691 692 693 694 696 698 700 702 705 706 708 709 711 713 714 715 716 717 718 719 720 722 723 724 725 727 729 730 732 733 734 734 735 736 737 738 738 740 741 742 744 746 747 748 749 750 751 752 751 751 751 751 751 752 753 753 754 754 754 754 754 753 753 753 753 753 753 753 752 751 750 749 748 746 745 743 742 740 739 737 735 734 732 730 727
691 693 695 696 698 700 702 704 705 706 707 709 710 712 713 715 716 718 719 719 721 722 723 723 724 725 727 728 730 731 732 733 733 734 736 736 737 738 739 741 742 744 745 746 747 748 750 750 750 750 751 751 751 752 752 752 753 753 753 753 753 752 752 752 752 752 752 752 751 750 750 748 747 746 744 743 742 740 738 737 735 734 732 730 727
693 695 697 698 699 701 702 703 705 706 706 708 709 711 712 714 716 717 718 719 720 721 722 722 723 723 725 727 728 729 730 732 733 733 735 735 736 737 738 739 741 743 744 745 746 747 748 749 749 749 750 750 751 751 752 752 752 752 752 752 751 751 751 752 752 752 751 750 750 750 749 748 746 745 744 743 741 740 738 737 735 734 732 730 727
695 696 698 699 700 701 702 703 704 705 706 708 709 710 712 714 715 715 716 718 719 719 719 720 721 722 723 724 726 727 729 730 731 733 734 734 735 736 737 738 740 741 742 743 744 745 746 747 747 747 748 749 750 751 751 750 751 751 751 750 749 750 751 751 751 751 750 749 749 748 748 747 746 745 743 742 741 739 738 737 736 734 732 730 727
696 697 698 699 700 701 703 703 704 704 706 708 709 709 711 712 712 713 715 717 718 719 720 720 720 721 721 722 723 725 726 728 729 730 732 733 734 735 736 737 738 739 741 742 742 742 744 745 745 746 747 747 748 749 749 749 750 750 749 748 749 750 750 750 750 750 749 748 747 747 747 746 745 744 743 741 740 739 738 737 736 734 732 730 728
696 697 698 699 700 701 702 703 704 705 706 707 708 709 711 712 712 714 716 717 718 718 719 720 720 720 720 721 722 723 725 726 727 728 729 731 732 733 734 735 736 738 740 740 740 741 742 743 743 744 745 746 746 747 748 748 748 748 747 748 749 749 749 749 749 749 748 747 746 746 746 745 744 743 742 741 740 739 738 737 736 734 732 730 728